Location: Unspecified
(0.0000°N, 0.0000°E)
Time: 09:03:00
(UTC+00:00)

Explorer 11/Cluster Stage 4 - Pass Details

Date: 23 July 2020
Orbit: 467 x 1259 km, 28.8° (Epoch: 03 August)

Event Time Altitude Azimuth Distance (km) Brightness Sun altitude
Rises 00:07:18 0° 216° (SW) 3,852 - -70.0°
Reaches altitude 10° 00:11:24 10° 196° (SSW) 2,730 - -69.9°
Maximum altitude 00:15:20 16° 160° (SSE) 2,126 - -69.9°
Drops below altitude 10° 00:18:50 10° 122° (ESE) 2,374 - -69.8°
Sets 00:22:02 0° 100° (E) 3,134 - -69.6°
